When you browse on this site, cookies collect data to enhance your experience and personalize the content and advertising you see.
Visit our Privacy Policy to learn more. By continuing to use the site, you agree to this use of cookies and data.
  • In Schweiz
  • Länderverzeichnis
  • Für 7 Tage
  • Wassertemperatur
  • Wetterkarte
  • Widgets
  • user-avatar
    Anmelden

    Stündliche Wetter Pleskachivka

    Heute, 22 September, Sonntag

    Zeit Temperatur Niederschläge Wind Luftdruck Luftfeuchtigkeit
    00:00 +6°C° 0 mm 2 m/S 746 mmHg 64%
    01:00 +5°C° 0 mm 3 m/S 746 mmHg 61%
    02:00 +6°C° 0 mm 4 m/S 745 mmHg 56%
    03:00 +6°C° 0 mm 5 m/S 745 mmHg 48%
    04:00 +5°C° 0.1 mm 6 m/S 744 mmHg 52%
    05:00 +6°C° 0.1 mm 7 m/S 743 mmHg 55%
    06:00 +6°C° 0.1 mm 7 m/S 743 mmHg 58%
    07:00 +6°C° 0.3 mm 8 m/S 742 mmHg 68%
    08:00 +7°C° 0.3 mm 8 m/S 741 mmHg 77%
    09:00 +7°C° 0.3 mm 8 m/S 741 mmHg 86%
    10:00 +9°C° 0.5 mm 8 m/S 741 mmHg 85%
    11:00 +10°C° 0.5 mm 9 m/S 741 mmHg 85%
    12:00 +11°C° 0.5 mm 9 m/S 740 mmHg 84%
    13:00 +12°C° 0.2 mm 9 m/S 740 mmHg 78%
    14:00 +13°C° 0.2 mm 9 m/S 741 mmHg 72%
    15:00 +13°C° 0.2 mm 9 m/S 741 mmHg 66%
    16:00 +13°C° 0.1 mm 8 m/S 741 mmHg 66%
    17:00 +14°C° 0.1 mm 7 m/S 741 mmHg 67%
    18:00 +13°C° 0.1 mm 6 m/S 741 mmHg 68%
    19:00 +13°C° 0.2 mm 6 m/S 741 mmHg 72%
    20:00 +11°C° 0.2 mm 6 m/S 742 mmHg 76%
    21:00 +12°C° 0.2 mm 5 m/S 742 mmHg 80%
    22:00 +10°C° 0.2 mm 5 m/S 742 mmHg 81%
    23:00 +10°C° 0.2 mm 4 m/S 742 mmHg 81%

    Morgen, 23 September, Montag

    Zeit Temperatur Niederschläge Wind Luftdruck Luftfeuchtigkeit
    00:00 +9°C° 0.2 mm 3 m/S 742 mmHg 81%
    01:00 +7°C° 1 mm 4 m/S 743 mmHg 83%
    02:00 +6°C° 1 mm 4 m/S 743 mmHg 84%
    03:00 +5°C° 1 mm 4 m/S 744 mmHg 86%
    04:00 +5°C° 0.5 mm 4 m/S 744 mmHg 85%
    05:00 +5°C° 0.5 mm 3 m/S 745 mmHg 85%
    06:00 +5°C° 0.5 mm 3 m/S 745 mmHg 84%
    07:00 +5°C° 0 mm 3 m/S 746 mmHg 76%
    08:00 +7°C° 0 mm 3 m/S 746 mmHg 68%
    09:00 +8°C° 0 mm 3 m/S 747 mmHg 61%
    10:00 +9°C° 0 mm 3 m/S 747 mmHg 55%
    11:00 +10°C° 0 mm 3 m/S 747 mmHg 49%
    12:00 +11°C° 0 mm 3 m/S 748 mmHg 43%
    13:00 +11°C° 0 mm 3 m/S 748 mmHg 40%
    14:00 +12°C° 0 mm 3 m/S 748 mmHg 36%
    15:00 +12°C° 0 mm 3 m/S 748 mmHg 33%
    16:00 +12°C° 0 mm 2 m/S 748 mmHg 35%
    17:00 +12°C° 0 mm 2 m/S 748 mmHg 38%
    18:00 +10°C° 0 mm 2 m/S 748 mmHg 40%
    19:00 +10°C° 0 mm 1 m/S 748 mmHg 43%
    20:00 +8°C° 0 mm 1 m/S 749 mmHg 45%
    21:00 +7°C° 0 mm 1 m/S 749 mmHg 48%
    22:00 +7°C° 0 mm 1 m/S 749 mmHg 51%
    23:00 +6°C° 0 mm 1 m/S 749 mmHg 53%

    übermorgen, 24 September, Dienstag

    Zeit Temperatur Niederschläge Wind Luftdruck Luftfeuchtigkeit
    00:00 +6°C° 0 mm 1 m/S 749 mmHg 56%
    01:00 +5°C° 0 mm 1 m/S 749 mmHg 58%
    02:00 +5°C° 0 mm 1 m/S 750 mmHg 59%
    03:00 +5°C° 0 mm 1 m/S 750 mmHg 61%
    04:00 +4°C° 0 mm 1 m/S 750 mmHg 62%
    05:00 +4°C° 0 mm 1 m/S 749 mmHg 63%
    06:00 +3°C° 0 mm 0 m/S 749 mmHg 65%
    07:00 +5°C° 0 mm 0 m/S 750 mmHg 59%
    08:00 +7°C° 0 mm 1 m/S 750 mmHg 53%
    09:00 +9°C° 0 mm 1 m/S 750 mmHg 47%
    10:00 +10°C° 0 mm 1 m/S 750 mmHg 43%
    11:00 +12°C° 0 mm 1 m/S 750 mmHg 38%
    12:00 +13°C° 0 mm 1 m/S 749 mmHg 34%
    13:00 +13°C° 0 mm 1 m/S 749 mmHg 32%
    14:00 +13°C° 0 mm 2 m/S 749 mmHg 30%
    15:00 +14°C° 0 mm 2 m/S 748 mmHg 29%
    16:00 +13°C° 0 mm 2 m/S 748 mmHg 32%
    17:00 +12°C° 0 mm 2 m/S 748 mmHg 36%
    18:00 +10°C° 0 mm 2 m/S 748 mmHg 39%
    19:00 +9°C° 0 mm 2 m/S 748 mmHg 42%
    20:00 +8°C° 0 mm 2 m/S 748 mmHg 44%
    21:00 +7°C° 0 mm 2 m/S 748 mmHg 47%
    22:00 +6°C° 0 mm 2 m/S 748 mmHg 48%
    23:00 +6°C° 0 mm 2 m/S 748 mmHg 49%

    25 September, Mittwoch

    Zeit Temperatur Niederschläge Wind Luftdruck Luftfeuchtigkeit
    00:00 +5°C° 0 mm 2 m/S 748 mmHg 50%
    01:00 +5°C° 0 mm 2 m/S 748 mmHg 52%
    02:00 +4°C° 0 mm 2 m/S 748 mmHg 54%
    03:00 +4°C° 0 mm 2 m/S 748 mmHg 56%
    04:00 +4°C° 0 mm 2 m/S 748 mmHg 58%
    05:00 +3°C° 0 mm 2 m/S 748 mmHg 60%
    06:00 +3°C° 0 mm 2 m/S 748 mmHg 63%
    07:00 +5°C° 0 mm 2 m/S 749 mmHg 58%
    08:00 +6°C° 0 mm 2 m/S 749 mmHg 53%
    09:00 +8°C° 0 mm 2 m/S 749 mmHg 47%
    10:00 +9°C° 0 mm 2 m/S 749 mmHg 42%
    11:00 +12°C° 0 mm 2 m/S 749 mmHg 37%
    12:00 +14°C° 0 mm 2 m/S 749 mmHg 32%
    13:00 +14°C° 0 mm 1 m/S 749 mmHg 30%
    14:00 +15°C° 0 mm 1 m/S 748 mmHg 28%
    15:00 +15°C° 0 mm 1 m/S 748 mmHg 26%
    16:00 +14°C° 0 mm 1 m/S 748 mmHg 29%
    17:00 +13°C° 0 mm 1 m/S 748 mmHg 32%
    18:00 +12°C° 0 mm 1 m/S 748 mmHg 34%
    19:00 +10°C° 0 mm 2 m/S 748 mmHg 36%
    20:00 +9°C° 0 mm 2 m/S 748 mmHg 37%
    21:00 +9°C° 0 mm 2 m/S 748 mmHg 39%
    22:00 +8°C° 0 mm 2 m/S 748 mmHg 41%
    23:00 +8°C° 0 mm 3 m/S 748 mmHg 42%

    26 September, Donnerstag

    Zeit Temperatur Niederschläge Wind Luftdruck Luftfeuchtigkeit
    00:00 +7°C° 0 mm 3 m/S 748 mmHg 44%
    01:00 +7°C° 0 mm 3 m/S 748 mmHg 46%
    02:00 +5°C° 0 mm 3 m/S 748 mmHg 48%
    03:00 +5°C° 0 mm 3 m/S 748 mmHg 50%
    04:00 +5°C° 0 mm 3 m/S 748 mmHg 51%
    05:00 +5°C° 0 mm 3 m/S 748 mmHg 51%
    06:00 +6°C° 0 mm 2 m/S 748 mmHg 52%
    07:00 +7°C° 0 mm 3 m/S 748 mmHg 48%
    08:00 +9°C° 0 mm 3 m/S 748 mmHg 45%
    09:00 +10°C° 0 mm 3 m/S 748 mmHg 41%
    10:00 +12°C° 0 mm 3 m/S 748 mmHg 37%
    11:00 +14°C° 0 mm 3 m/S 748 mmHg 33%
    12:00 +15°C° 0 mm 4 m/S 748 mmHg 30%
    13:00 +17°C° 0 mm 4 m/S 748 mmHg 28%
    14:00 +17°C° 0 mm 4 m/S 747 mmHg 27%
    15:00 +17°C° 0 mm 4 m/S 747 mmHg 26%
    16:00 +16°C° 0 mm 3 m/S 746 mmHg 30%
    17:00 +14°C° 0 mm 3 m/S 746 mmHg 33%
    18:00 +13°C° 0 mm 3 m/S 746 mmHg 36%
    19:00 +12°C° 0 mm 3 m/S 746 mmHg 38%
    20:00 +12°C° 0 mm 3 m/S 746 mmHg 39%
    21:00 +11°C° 0 mm 3 m/S 746 mmHg 41%
    22:00 +10°C° 0 mm 3 m/S 745 mmHg 43%
    23:00 +10°C° 0 mm 3 m/S 745 mmHg 44%

    27 September, Freitag

    Zeit Temperatur Niederschläge Wind Luftdruck Luftfeuchtigkeit
    00:00 +10°C° 0 mm 3 m/S 745 mmHg 46%
    01:00 +9°C° 0 mm 3 m/S 744 mmHg 51%
    02:00 +9°C° 0 mm 3 m/S 744 mmHg 57%
    03:00 +9°C° 0 mm 2 m/S 744 mmHg 63%
    04:00 +9°C° 0 mm 2 m/S 744 mmHg 68%
    05:00 +9°C° 0 mm 2 m/S 743 mmHg 74%
    06:00 +9°C° 0 mm 2 m/S 743 mmHg 79%
    07:00 +10°C° 0 mm 2 m/S 743 mmHg 77%
    08:00 +12°C° 0 mm 2 m/S 743 mmHg 74%
    09:00 +13°C° 0 mm 1 m/S 742 mmHg 72%
    10:00 +15°C° 0 mm 1 m/S 742 mmHg 68%
    11:00 +16°C° 0 mm 1 m/S 742 mmHg 64%
    12:00 +18°C° 0 mm 1 m/S 742 mmHg 60%
    13:00 +18°C° 0 mm 2 m/S 742 mmHg 58%
    14:00 +18°C° 0 mm 2 m/S 741 mmHg 56%
    15:00 +18°C° 0 mm 3 m/S 741 mmHg 54%
    16:00 +17°C° 0 mm 2 m/S 741 mmHg 55%
    17:00 +16°C° 0 mm 2 m/S 741 mmHg 56%
    18:00 +16°C° 0 mm 2 m/S 741 mmHg 57%
    19:00 +15°C° 0 mm 1 m/S 741 mmHg 58%
    20:00 +14°C° 0 mm 1 m/S 741 mmHg 59%
    21:00 +13°C° 0 mm 1 m/S 741 mmHg 60%
    22:00 +13°C° 0 mm 2 m/S 741 mmHg 64%
    23:00 +13°C° 0 mm 2 m/S 741 mmHg 68%
    Mehr zeigen